GW7336 Weather Reports


time (UTC)temp
C
wind
direction
speed
KPH
gust
KPH
rain 1hr
cm
rain 24hr
cm
rain mn
cm
humidity
%
barometer
mb
20260510220027 18 84 0.0 0.0 0.00 0.10 0.05 50 1011.1
20260510215505 18 277 0.0 0.0 0.00 0.10 0.05 49 1011.1
20260510215008 18 9 0.0 0.0 0.00 0.10 0.05 49 1011.0
20260510214525 18 289 0.0 0.0 0.00 0.13 0.05 48 1011.0
20260510214005 18 300 0.0 0.0 0.00 0.15 0.05 51 1010.9
20260510213505 19 300 0.0 0.0 0.00 0.15 0.05 47 1010.8
20260510213006 19 303 0.0 0.0 0.00 0.15 0.05 48 1010.8
20260510212504 18 39 0.0 0.0 0.00 0.18 0.05 52 1010.8
20260510212009 18 99 0.0 0.0 0.00 0.18 0.05 55 1010.8
20260510211504 18 30 0.0 0.0 0.00 0.20 0.05 54 1011.0
20260510211003 18 18 0.0 0.0 0.00 0.20 0.05 54 1010.9
20260510210506 19 62 0.0 0.0 0.00 0.20 0.05 55 1010.8
20260510210019 19 247 0.0 0.0 0.00 0.23 0.05 56 1010.7
20260510205503 19 5 0.0 0.0 0.00 0.25 0.05 59 1010.7
20260510205004 19 46 0.0 0.0 0.00 0.25 0.05 55 1010.8
20260510204518 18 274 0.0 0.0 0.00 0.25 0.05 55 1010.9
20260510204012 19 111 0.0 0.0 0.00 0.28 0.05 58 1010.7
20260510203504 19 242 0.0 0.0 0.00 0.30 0.05 55 1010.7
20260510203014 19 355 0.0 14.5 0.00 0.30 0.05 55 1010.8
20260510202510 20 258 0.0 14.5 0.00 0.30 0.05 54 1010.7
20260510202002 20 61 0.0 0.0 0.00 0.30 0.05 58 1010.7
20260510201509 20 107 0.0 0.0 0.00 0.33 0.05 56 1010.7
20260510201007 20 213 0.0 0.0 0.00 0.36 0.05 58 1010.7
20260510200505 20 82 0.0 0.0 0.00 0.36 0.05 58 1010.7
20260510200008 20 279 0.0 0.0 0.00 0.38 0.05 60 1010.7
20260510195504 20 360 0.0 0.0 0.00 0.41 0.05 59 1010.8
20260510195007 20 253 0.0 0.0 0.00 0.41 0.05 57 1010.8
20260510194507 20 315 0.0 6.4 0.00 0.41 0.05 58 1010.8
20260510194006 20 224 0.0 6.4 0.00 0.41 0.05 58 1010.9
20260510193504 20 250 0.0 0.0 0.00 0.41 0.05 56 1010.9
20260510193022 20 164 0.0 0.0 0.00 0.43 0.05 58 1010.8
20260510192503 19 277 0.0 12.9 0.00 0.43 0.05 59 1010.7
20260510192005 19 32 0.0 12.9 0.00 0.46 0.05 61 1010.8
20260510191521 19 260 0.0 0.0 0.00 0.46 0.05 61 1010.8
20260510191008 19 350 0.0 0.0 0.00 0.46 0.05 62 1010.9
20260510190504 19 114 0.0 0.0 0.00 0.46 0.05 64 1010.9
20260510190017 19 77 0.0 0.0 0.05 0.48 0.05 63 1010.9
20260510185511 19 11 0.0 12.9 0.05 0.48 0.05 63 1011.0
20260510185004 18 262 0.0 12.9 0.05 0.51 0.05 63 1010.9
20260510184512 18 83 0.0 0.0 0.05 0.51 0.05 42 1011.0
20260510184008 18 87 0.0 0.0 0.05 0.51 0.05 57 1010.9
20260510183509 17 292 0.0 1.6 0.05 0.53 0.05 57 1011.0
20260510183008 17 38 0.0 1.6 0.05 0.56 0.05 41 1011.0
20260510182505 17 46 0.0 0.0 0.05 0.56 0.05 26 1011.1
20260510182007 16 43 0.0 0.0 0.05 0.58 0.05 34 1011.2
20260510181507 16 192 0.0 0.0 0.05 0.61 0.05 43 1011.2
20260510181006 17 321 0.0 0.0 0.05 0.64 0.05 49 1011.2
20260510180507 17 321 0.0 0.0 0.05 0.66 0.05 62 1011.3
20260510180026 18 360 0.0 0.0 0.00 0.61 0.00 64 1011.1
20260510175503 18 56 0.0 1.6 0.00 0.64 0.00 61 1011.1
20260510175003 18 241 0.0 1.6 0.00 0.66 0.00 61 1011.0
20260510174522 18 204 0.0 0.0 0.00 0.66 0.00 61 1011.0
20260510174004 19 293 0.0 0.0 0.00 0.69 0.00 60 1011.2
20260510173504 19 55 0.0 0.0 0.00 0.71 0.00 60 1011.1
20260510173023 19 278 0.0 17.7 0.00 0.71 0.00 62 1011.1
20260510172511 19 315 0.0 17.7 0.00 0.74 0.00 60 1011.1
20260510172005 19 336 0.0 0.0 0.00 0.76 0.00 60 1011.3
20260510171515 18 323 0.0 0.0 0.00 0.76 0.00 64 1011.3
20260510171007 18 136 0.0 0.0 0.00 0.79 0.00 64 1011.4
20260510170511 17 344 0.0 0.0 0.00 0.81 0.00 64 1011.5
20260510170014 17 182 0.0 0.0 0.00 0.81 0.00 65 1011.5
20260510165510 17 292 0.0 0.0 0.00 0.84 0.00 65 1011.6
20260510165011 17 180 0.0 0.0 0.00 0.86 0.00 64 1011.6
20260510164522 17 90 0.0 0.0 0.00 0.91 0.00 65 1011.7
20260510164006 17 355 0.0 0.0 0.00 0.91 0.00 65 1011.6
20260510163509 17 287 0.0 0.0 0.00 0.97 0.00 64 1011.7
20260510163026 17 225 0.0 0.0 0.00 0.97 0.00 65 1011.6
20260510162504 18 113 0.0 0.0 0.00 0.97 0.00 64 1011.7
20260510162013 18 163 0.0 1.6 0.00 0.99 0.00 64 1011.7
20260510161523 17 295 0.0 1.6 0.00 1.02 0.00 61 1011.7
20260510161006 17 293 0.0 1.6 0.00 1.02 0.00 61 1011.6
20260510160508 17 148 0.0 0.0 0.00 1.04 0.00 64 1011.6
20260510160020 17 302 0.0 0.0 0.00 1.07 0.00 64 1011.7
20260510155511 17 231 0.0 0.0 0.00 1.07 0.00 61 1011.7
20260510155004 17 124 0.0 1.6 0.00 1.07 0.00 41 1011.7
20260510154522 16 305 0.0 1.6 0.00 1.07 0.00 59 1011.8
20260510154009 16 21 0.0 0.0 0.00 1.09 0.00 36 1011.8
20260510153503 15 95 0.0 0.0 0.00 1.12 0.00 27 1011.9
20260510153019 15 95 0.0 0.0 0.00 1.12 0.00 37 1011.8
20260510152506 15 95 0.0 0.0 0.00 1.12 0.00 20 1011.8
20260510152011 15 95 0.0 0.0 0.00 1.12 0.00 31 1011.9
20260510151510 15 118 0.0 0.0 0.00 1.14 0.00 18 1011.9
20260510151007 15 93 0.0 0.0 0.00 1.14 0.00 19 1012.0
20260510150507 14 133 0.0 0.0 0.00 1.17 0.00 13 1011.9
20260510150032 13 227 0.0 0.0 0.00 1.17 0.00 20 1011.9
20260510145505 14 302 0.0 3.2 0.00 1.17 0.00 18 1012.0
20260510145007 14 142 0.0 3.2 0.00 1.19 0.00 6 1011.9
20260510144533 13 121 0.0 1.6 0.00 1.22 0.00 100 1012.0
20260510144008 13 135 0.0 1.6 0.00 1.22 0.00 100 1012.0
20260510143508 13 304 0.0 0.0 0.00 1.22 0.00 100 1011.9
20260510143025 12 101 0.0 1.6 0.00 1.22 0.00 100 1012.0
20260510142512 12 91 0.0 8.0 0.00 1.24 0.00 100 1012.1
20260510142007 12 140 0.0 8.0 0.00 1.24 0.00 100 1012.2
20260510141523 12 125 0.0 4.8 0.00 1.27 0.00 100 1012.3
20260510141011 12 101 0.0 8.0 0.00 1.27 0.00 100 1012.3
20260510140503 11 71 0.0 8.0 0.00 1.27 0.00 100 1012.1
20260510140019 11 302 0.0 3.2 0.00 1.30 0.00 100 1012.2
20260510135509 11 194 0.0 3.2 0.00 1.30 0.00 100 1012.1
20260510135008 11 249 0.0 3.2 0.00 1.32 0.00 100 1012.1
20260510134516 11 107 0.0 1.6 0.00 1.32 0.00 100 1012.1
20260510134007 11 85 0.0 0.0 0.00 1.32 0.00 100 1012.0
20260510133507 11 241 0.0 3.2 0.00 1.32 0.00 100 1012.0
20260510133026 11 240 0.0 3.2 0.00 1.32 0.00 100 1012.0
20260510132508 11 346 0.0 0.0 0.00 1.32 0.00 100 1011.9
20260510132010 10 339 0.0 0.0 0.00 1.32 0.00 100 1012.0
20260510131525 10 209 0.0 0.0 0.00 1.32 0.00 100 1012.0
20260510131003 10 124 0.0 0.0 0.00 1.32 0.00 100 1011.9
20260510130510 10 124 0.0 3.2 0.00 1.37 0.00 100 1011.9
20260510130025 10 158 0.0 3.2 0.00 1.37 0.00 100 1011.8
20260510125507 10 135 0.0 0.0 0.00 1.37 0.00 100 1011.8
20260510125006 10 135 0.0 0.0 0.00 1.37 0.00 100 1011.8
20260510124528 10 144 0.0 1.6 0.00 1.37 0.00 100 1011.9
20260510124011 10 301 0.0 1.6 0.00 1.40 0.00 100 1011.8
20260510123504 10 180 0.0 0.0 0.00 1.40 0.00 100 1011.7
20260510123019 10 286 0.0 1.6 0.00 1.40 0.00 100 1011.9
20260510122508 10 286 0.0 9.7 0.00 1.40 0.00 100 1011.9
20260510122011 10 280 0.0 9.7 0.00 1.40 0.00 100 1011.9
20260510121515 10 240 0.0 8.0 0.00 1.40 0.00 100 1011.9
20260510121007 10 31 0.0 4.8 0.00 1.40 0.00 100 1011.9
20260510120518 10 271 0.0 4.8 0.00 1.40 0.00 100 1011.9
20260510120028 10 308 0.0 0.0 0.00 1.40 0.00 100 1011.9
20260510115507 10 308 0.0 0.0 0.00 1.40 0.00 100 1011.8
20260510115013 10 336 0.0 0.0 0.00 1.40 0.00 100 1011.9
20260510114528 9 69 0.0 0.0 0.00 1.40 0.00 100 1011.8
20260510114007 9 111 0.0 0.0 0.00 1.40 0.00 100 1011.8
20260510113508 9 146 0.0 0.0 0.00 1.40 0.00 100 1011.9
20260510113024 8 76 0.0 0.0 0.00 1.40 0.00 100 1012.1
20260510112507 8 22 0.0 0.0 0.00 1.40 0.00 100 1011.8
20260510112010 8 22 0.0 0.0 0.00 1.40 0.00 100 1011.8
20260510111526 8 22 0.0 0.0 0.00 1.40 0.00 100 1011.6
20260510111011 8 22 0.0 0.0 0.00 1.40 0.00 100 1011.4
20260510110508 8 22 0.0 0.0 0.00 1.40 0.00 100 1011.3
20260510110022 8 17 0.0 0.0 0.00 1.40 0.00 100 1011.3
20260510105510 8 17 0.0 0.0 0.00 1.40 0.00 100 1011.3
20260510105007 8 17 0.0 0.0 0.00 1.40 0.00 100 1011.2
20260510104520 8 17 0.0 0.0 0.00 1.40 0.00 100 1011.3
20260510104008 8 17 0.0 0.0 0.00 1.40 0.00 100 1011.0
20260510103510 8 17 0.0 0.0 0.00 1.40 0.00 100 1011.0
20260510103029 8 17 0.0 0.0 0.00 1.40 0.00 100 1011.0
20260510102510 8 17 0.0 0.0 0.00 1.40 0.00 100 1011.1
20260510102006 8 17 0.0 0.0 0.00 1.40 0.00 100 1011.0
20260510101526 8 17 0.0 0.0 0.00 1.40 0.00 100 1011.0
20260510101008 8 17 0.0 0.0 0.00 1.40 0.00 100 1010.7
20260510100507 8 17 0.0 0.0 0.00 1.40 0.00 100 1010.5
20260510100027 8 17 0.0 0.0 0.00 1.40 0.00 100 1010.6
20260510095516 8 16 0.0 0.0 0.00 1.40 0.00 100 1010.6
20260510095009 8 17 0.0 0.0 0.00 1.40 0.00 100 1010.5
20260510094537 8 17 0.0 0.0 0.00 1.40 0.00 100 1010.5
20260510094008 8 17 0.0 0.0 0.00 1.40 0.00 100 1010.6
20260510093508 8 17 0.0 0.0 0.00 1.40 0.00 100 1010.6
20260510093006 8 17 0.0 0.0 0.00 1.40 0.00 100 1010.3
20260510092504 8 16 0.0 0.0 0.00 1.40 0.00 100 1010.4
20260510092008 8 17 0.0 0.0 0.00 1.40 0.00 100 1010.4
20260510091522 8 16 0.0 0.0 0.00 1.40 0.00 100 1010.5
20260510091002 8 17 0.0 0.0 0.00 1.40 0.00 100 1010.7
20260510090505 8 17 0.0 0.0 0.00 1.40 0.00 100 1010.7
20260510090019 8 17 0.0 0.0 0.00 1.40 0.00 100 1010.7
20260510085502 8 16 0.0 0.0 0.00 1.40 0.00 100 1010.7
20260510085007 8 17 0.0 0.0 0.00 1.40 0.00 100 1010.6
20260510084518 8 17 0.0 0.0 0.00 1.40 0.00 100 1010.7
20260510084008 8 17 0.0 0.0 0.00 1.40 0.00 100 1010.7
20260510083503 8 16 0.0 0.0 0.00 1.40 0.00 100 1010.8
20260510083012 8 17 0.0 0.0 0.00 1.40 0.00 100 1010.7
20260510082506 8 17 0.0 0.0 0.00 1.40 0.00 100 1010.5
20260510082013 8 16 0.0 0.0 0.00 1.40 0.00 100 1010.7
20260510081509 8 17 0.0 0.0 0.00 1.40 0.00 100 1010.6
20260510081004 8 17 0.0 0.0 0.00 1.40 0.00 100 1010.5
20260510080505 8 16 0.0 0.0 0.00 1.40 0.00 100 1010.7
20260510080016 7 16 0.0 0.0 0.00 1.40 0.00 100 1010.6
20260510075506 7 16 0.0 0.0 0.00 1.40 0.00 100 1010.5
20260510075008 7 17 0.0 0.0 0.00 1.40 0.00 100 1010.6
20260510074525 7 17 0.0 0.0 0.00 1.40 0.00 100 1010.6
20260510074002 7 16 0.0 0.0 0.00 1.40 0.00 100 1010.6
20260510073506 7 17 0.0 0.0 0.00 1.40 0.00 100 1010.5
20260510073022 7 17 0.0 0.0 0.00 1.40 0.00 100 1010.6
20260510072506 7 16 0.0 0.0 0.00 1.40 0.00 100 1010.6
20260510072004 7 17 0.0 0.0 0.00 1.40 0.00 100 1010.5
20260510071515 7 17 0.0 0.0 0.00 1.40 0.00 100 1010.5
20260510071005 7 16 0.0 0.0 0.00 1.40 0.00 100 1010.5
20260510070502 7 17 0.0 0.0 0.00 1.40 0.00 100 1010.5
20260510070014 7 17 0.0 0.0 0.00 1.40 0.00 100 1010.6
20260510065506 7 17 0.0 0.0 0.00 1.40 0.00 100 1010.6
20260510065008 7 16 0.0 0.0 0.00 1.40 0.00 100 1010.7
20260510064510 7 17 0.0 0.0 0.00 1.40 0.00 100 1010.9
20260510064007 7 17 0.0 0.0 0.00 1.40 0.00 100 1010.8
20260510063508 7 17 0.0 0.0 0.00 1.40 0.00 100 1010.6
20260510063008 7 17 0.0 0.0 0.00 1.40 0.00 100 1010.7
20260510062507 7 16 0.0 0.0 0.00 1.40 0.00 100 1010.7
20260510062009 7 17 0.0 0.0 0.00 1.40 0.00 100 1010.6
20260510061527 7 16 0.0 0.0 0.00 1.40 0.00 100 1010.6
20260510061003 7 17 0.0 0.0 0.00 1.40 0.00 100 1010.7
20260510060507 7 16 0.0 0.0 0.00 1.40 0.00 100 1010.8
20260510060034 7 17 0.0 0.0 0.00 1.40 0.00 100 1010.9
20260510055504 7 17 0.0 0.0 0.00 1.40 0.00 100 1010.7
20260510055006 7 16 0.0 0.0 0.00 1.40 0.00 100 1010.7
20260510054532 7 17 0.0 0.0 0.00 1.40 0.00 100 1010.8
20260510054011 7 17 0.0 0.0 0.00 1.40 0.00 100 1010.8
20260510053504 7 17 0.0 0.0 0.00 1.40 0.00 100 1010.8
20260510053017 7 17 0.0 0.0 0.00 1.40 0.00 100 1010.9
20260510052511 7 16 0.0 0.0 0.00 1.40 0.00 100 1011.0
20260510052009 7 16 0.0 0.0 0.00 1.40 0.00 100 1011.0
20260510051515 7 17 0.0 0.0 0.00 1.40 0.00 100 1010.9
20260510051007 7 17 0.0 0.0 0.00 1.40 0.00 100 1010.9
20260510050509 7 17 0.0 0.0 0.00 1.40 0.00 100 1011.0
20260510050011 7 17 0.0 0.0 0.00 1.40 0.00 100 1011.1
20260510045509 7 17 0.0 0.0 0.00 1.40 0.00 100 1011.2
20260510045010 7 16 0.0 0.0 0.00 1.40 0.00 100 1011.2
20260510044527 7 17 0.0 0.0 0.00 1.40 0.00 100 1011.2
20260510044003 7 17 0.0 0.0 0.00 1.40 0.00 100 1011.1
20260510043507 7 17 0.0 0.0 0.00 1.40 0.00 100 1011.1
20260510043028 7 17 0.0 0.0 0.00 1.40 0.00 100 1011.0
20260510042507 7 17 0.0 0.0 0.00 1.40 0.00 100 1011.1
20260510042003 7 16 0.0 0.0 0.00 1.40 0.00 100 1011.2
20260510041522 7 17 0.0 0.0 0.00 1.40 0.00 100 1011.2
20260510041008 7 17 0.0 0.0 0.00 1.40 0.00 100 1011.2
20260510040504 7 17 0.0 0.0 0.00 1.40 0.00 100 1011.1
20260510040019 7 17 0.0 0.0 0.00 1.40 0.00 100 1011.2
20260510035508 7 17 0.0 0.0 0.00 1.40 1.40 100 1011.0
20260510035010 7 16 0.0 0.0 0.00 1.40 1.40 100 1011.2
20260510034522 7 16 0.0 0.0 0.00 1.40 1.40 100 1011.1
20260510034008 7 16 0.0 0.0 0.00 1.40 1.40 100 1011.3
20260510033510 7 16 0.0 0.0 0.00 1.40 1.40 100 1011.3
20260510033013 7 16 0.0 0.0 0.00 1.40 1.40 100 1011.5
20260510032505 7 17 0.0 0.0 0.00 1.40 1.40 100 1011.6
20260510032009 7 16 0.0 0.0 0.00 1.40 1.40 100 1011.5
20260510031527 7 16 0.0 0.0 0.00 1.40 1.40 100 1011.5
20260510031003 7 17 0.0 0.0 0.00 1.40 1.40 100 1011.6
20260510030512 7 16 0.0 0.0 0.00 1.40 1.40 100 1011.6
20260510030025 7 16 0.0 0.0 0.00 1.40 1.40 100 1011.8
20260510025506 7 16 0.0 0.0 0.00 1.40 1.40 100 1011.7
20260510025011 7 17 0.0 0.0 0.00 1.40 1.40 100 1011.7
20260510024521 7 17 0.0 0.0 0.00 1.40 1.40 100 1011.7
20260510024010 7 17 0.0 0.0 0.00 1.40 1.40 100 1011.9
20260510023506 7 16 0.0 0.0 0.00 1.40 1.40 100 1011.9
20260510023020 7 17 0.0 0.0 0.00 1.40 1.40 100 1011.9
20260510022506 7 17 0.0 0.0 0.00 1.40 1.40 100 1011.8
20260510022010 7 17 0.0 0.0 0.00 1.40 1.40 100 1011.9
20260510021520 7 17 0.0 0.0 0.00 1.40 1.40 100 1011.9
20260510021005 7 17 0.0 0.0 0.00 1.40 1.40 100 1011.9
20260510020511 7 16 0.0 0.0 0.00 1.40 1.40 100 1011.9
20260510020014 7 17 0.0 0.0 0.00 1.40 1.40 100 1011.9
20260510015506 7 17 0.0 0.0 0.00 1.40 1.40 100 1011.9
20260510015006 7 17 0.0 0.0 0.00 1.40 1.40 100 1012.1
20260510014527 7 17 0.0 0.0 0.00 1.40 1.40 100 1012.2
20260510014004 7 17 0.0 0.0 0.00 1.40 1.40 100 1012.2
20260510013510 7 17 0.0 0.0 0.00 1.40 1.40 100 1012.2
20260510013024 7 17 0.0 0.0 0.00 1.40 1.40 100 1012.1
20260510012507 7 17 0.0 0.0 0.00 1.40 1.40 100 1012.0
20260510012009 7 17 0.0 0.0 0.00 1.40 1.40 100 1011.9
20260510011523 7 17 0.0 0.0 0.00 1.40 1.40 100 1012.0
20260510011008 7 17 0.0 0.0 0.00 1.40 1.40 100 1012.0
20260510010511 7 17 0.0 0.0 0.00 1.40 1.40 100 1011.9
20260510010022 7 17 0.0 0.0 0.00 1.40 1.40 100 1011.8
20260510005509 7 16 0.0 0.0 0.00 1.40 1.40 100 1011.7
20260510005007 7 17 0.0 0.0 0.00 1.40 1.40 100 1011.8
20260510004521 7 17 0.0 0.0 0.00 1.40 1.40 100 1011.7
20260510004007 7 17 0.0 0.0 0.00 1.40 1.40 100 1011.7
20260510003507 7 17 0.0 0.0 0.00 1.40 1.40 100 1011.7
20260510003026 7 17 0.0 0.0 0.00 1.40 1.40 100 1011.7
20260510002508 7 16 0.0 0.0 0.00 1.40 1.40 100 1011.6
20260510002003 7 17 0.0 0.0 0.00 1.40 1.40 100 1011.6
20260510001516 7 17 0.0 0.0 0.00 1.40 1.40 100 1011.6
20260510001007 7 16 0.0 0.0 0.00 1.40 1.40 100 1011.6
20260510000508 7 16 0.0 0.0 0.00 1.40 1.40 100 1011.6
20260510000011 7 17 0.0 0.0 0.00 1.40 1.40 100 1011.6
20260509235506 7 17 0.0 0.0 0.00 1.40 1.40 100 1011.6
20260509235006 7 17 0.0 0.0 0.00 1.40 1.40 100 1011.6
20260509234534 7 17 0.0 0.0 0.00 1.40 1.40 100 1011.6
20260509234004 7 17 0.0 0.0 0.00 1.40 1.40 100 1011.6
20260509233507 7 17 0.0 0.0 0.00 1.40 1.40 100 1011.6
20260509233025 7 17 0.0 0.0 0.00 1.40 1.40 100 1011.5
20260509232506 7 17 0.0 0.0 0.00 1.40 1.40 100 1011.5
20260509232007 7 16 0.0 0.0 0.00 1.40 1.40 100 1011.3
20260509231523 7 17 0.0 0.0 0.00 1.40 1.40 100 1011.3
20260509231006 7 16 0.0 0.0 0.03 1.40 1.40 100 1011.5
20260509230503 7 16 0.0 0.0 0.05 1.40 1.40 100 1011.3
20260509230020 7 17 0.0 0.0 0.05 1.40 1.40 100 1011.2
20260509225508 7 17 0.0 0.0 0.05 1.40 1.40 100 1011.2
20260509225004 7 17 0.0 0.0 0.05 1.40 1.40 100 1011.2
20260509224516 7 16 0.0 0.0 0.08 1.40 1.40 100 1011.3
20260509224006 7 17 0.0 0.0 0.10 1.40 1.40 100 1011.3
20260509223510 7 16 0.0 0.0 0.10 1.40 1.40 100 1011.2
20260509223014 7 17 0.0 0.0 0.10 1.40 1.40 100 1011.2
20260509222507 7 17 0.0 0.0 0.13 1.40 1.40 100 1011.2
20260509222007 7 17 0.0 0.0 0.13 1.40 1.40 100 1011.3
20260509221526 7 16 0.0 0.0 0.15 1.40 1.40 100 1011.3
20260509221003 7 17 0.0 0.0 0.13 1.37 1.37 100 1011.3
20260509220508 7 107 0.0 0.0 0.10 1.32 1.32 100 1011.4